Showing default

COSMOS 2270, 23001

Orbit data source: Space-Track

COSMOS 2270, 23001 is a payload satellite owned by VKS (CIS) in LEO that was launched on Sat, 12 Feb 1994 UTC via a TSIKLON-3 launch vehicle from the Plesetsk Missile And Space Complex (PKMTR). Payload-class satellites include a variety of spacecraft equipped with specific instruments for various scientific and technological missions. These include communications satellites like Starlink; space stations such as the ISS; scientific satellites like the Hubble; Earth observation satellites from companies like Planet Labs, Umbra, and HawkEye 360; GPS; miniature CubeSats for education and research; and military/defense satellites.

Loading next visibility...
Identifier
23001, 1994-011C
Orbit
LEO
Country
Flag of CISCIS
Related business
Manufacturer
NPO PM
Mission
Defense Communications
Bus & Motor
STRELA-3, Unknown motor
Mass
225 kg wet, 225 kg dry
Launch date (UTC)
1994-02-12 (32 years ago)
Launch vehicle
TSIKLON-3
Launch site
Plesetsk Missile And Space Complex (PKMTR)
Object type
Payload
Rocket body
Debris
Shape & HBR
Cyl, 0.8 m
Radar Cross Section
1.257 m², Large (>1 m²)

Expand to show TLE details & history
Last TLE update: 18 hours ago

TLE from 18 hours ago
0 COSMOS 2270
1 23001U 94011C   25305.50392644  .00000046  00000-0  19531-3 0  9991
2 23001  82.5696  99.3756 0006886 341.8281  81.6961 12.62927908461916
Epoch: 2025-11-01T12:05Z
TLE epoch observation values (Epoch: 2025-11-01T12:05:39.244Z)
Latitude
62.73353°
Longitude
-108.48738°
Altitude
1,420.846 km
Speed
7.156 km/s
True Right ascension
07h 35m 50s
True Declination
62° 36' 19"
Sunlit
Object was in daylight at epoch
Visualization orbit readout
Latitude
Unknown
Longitude
Unknown
Altitude
Unknown
Speed
Unknown
Apparent Right ascension
Unknown
Apparent Declination
Unknown
Sunlit
N/A
Visualization observer readout
Local Sidereal Time
02:08:32
Azimuth
Unknown
Elevation
Unknown
Doppler factor
Unknown
Orbital elements
Apogee altitude
1,413.565 km
Perigee altitude
1,402.841 km
Semi-major axis
7,786.34 km
Eccentricity
0.00069
Inclination
82.5696°
RAAN
99.3756°
Arg. of periapsis
341.8281°
True anomaly
81.77419°
Mean anomaly
81.6961°
Eccentric anomaly
81.73514°
Mean motion
3.15895 °/min
Orbital period
113.96 mins
BSTAR
0.00019531
Loading maneuver chart data...
Computing Atmospheric mass density...
Loading historical data...
Loading historical data...
Loading historical data...
Loading historical data...
Loading historical data...
Loading historical data...
Loading historical data...

Documentation

Showing up to 5 results
|